#timestamp,LO_Frequency,Hit,StdDev 
1616349615.3,286047004.8,N
1616349635.1,286047007.4,N
1616349655.8,286047006.4,N
1616349675.7,286047007.2,N
1616349695.5,286047004.5,N
1616349715.3,286047007.1,N
1616349735.2,286047005.7,N
1616349755.0,286047005.8,N
1616349755.9,286047005.8,N
1616349775.8,286047003.1,N
1616349795.6,286047004.4,N
1616349815.4,286047001.4,N
1616349835.3,286047002.7,N
1616349855.1,286047001.7,N
1616349875.9,286047002.7,N
1616349895.7,286047001.5,N
1616349915.5,286047005.9,N
1616349935.4,286047003.3,N
1616349955.2,286047007.0,Y
1616349975.0,286047000.1,P
1616349975.9,286047000.1,N
1616349995.8,286046998.3,N
1616350015.6,286046998.9,N
1616350035.5,286046998.8,N
1616350055.3,286046998.8,N
1616350075.1,286046996.7,N
1616350095.9,286046998.9,N
1616350115.7,286046998.9,N
1616350135.5,286046996.8,N
1616350155.4,286046999.6,N
1616350175.2,286046996.9,N
1616350195.0,286046999.1,N
1616350195.9,286046999.1,N
1616350215.8,286046998.2,N
1616350235.6,286047000.9,N
1616350255.5,286047000.6,N
1616350275.3,286046998.7,N
1616350295.1,286047000.9,N
1616350315.9,286047000.3,N
1616350335.7,286047002.5,N
1616350355.5,286047002.7,N
1616350375.4,286047000.2,N
1616350395.2,286047001.1,N
1616350415.1,286046998.9,N
1616350416.0,286046998.9,N
1616350435.8,286046996.9,N
1616350455.6,286046996.7,N
1616350475.5,286046997.2,N
1616350495.3,286046997.1,N
1616350515.1,286046997.5,N
1616350535.9,286046995.3,N
1616350555.7,286046995.3,N
1616350575.6,286046998.6,N
1616350595.4,286046997.3,N
1616350615.2,286046997.0,N
1616350635.1,286046995.4,N
1616350636.0,286046995.4,N
1616350655.8,286046995.3,N
1616350675.6,286046996.2,N
1616350695.5,286046994.0,N
1616350715.3,286046992.4,Y
1616350735.2,286046994.6,P
1616350755.9,286046992.2,P
1616350775.7,286046991.9,P
1616350795.6,286046992.0,Y
1616350815.4,286046998.5,P
1616350835.2,286046998.3,N
1616350855.1,286046998.6,N
1616350856.0,286046998.6,N
1616350875.8,286046998.6,N
1616350895.7,286046996.5,N
1616350915.5,286046995.0,Y
1616350935.3,286046998.3,P
1616350955.2,286046998.4,P
1616350975.0,286046999.5,N
1616350975.9,286046999.5,N
1616350995.8,286046996.9,Y
1616351015.6,286046998.6,P
1616351035.4,286046998.9,P
1616351055.3,286046999.0,P
1616351075.1,286046999.3,Y
1616351095.8,286046998.8,P
1616351115.7,286046998.2,P
1616351135.5,286046998.4,P
1616351155.4,286046998.5,Y
1616351175.2,286047000.2,P
1616351195.0,286047000.2,N
1616351195.9,286047000.2,N
1616351215.8,286046999.8,N
1616351235.6,286047000.4,N
1616351255.4,286046998.1,Y
1616351275.3,286047001.0,P
1616351295.1,286046998.1,P
1616351315.9,286046998.8,N
1616351335.7,286046998.7,N
1616351355.5,286046998.6,N
1616351375.4,286046996.6,Y
1616351395.2,286046998.9,P
1616351415.0,286046998.8,P
1616351416.0,286046998.8,P
1616351435.8,286046998.1,Y
1616351455.6,286047002.7,P
1616351475.5,286047000.3,N
1616351495.3,286046999.7,N
1616351515.1,286047000.5,N
1616351535.9,286047000.6,N
1616351555.7,286046999.4,N
1616351575.6,286046999.1,N
1616351595.4,286046996.7,N
1616351615.2,286046997.4,N
1616351635.1,286046998.8,N
1616351636.0,286046998.8,N
1616351655.8,286046999.0,N
1616351675.6,286046998.2,N
1616351695.5,286046998.9,N
1616351715.3,286046999.4,N
1616351735.1,286047000.2,N
1616351755.9,286047002.5,N
1616351775.7,286047001.8,N
1616351795.6,286047001.9,N
1616351815.4,286047005.1,Y
1616351835.2,286047006.6,P
1616351855.1,286047007.1,N
1616351856.0,286047007.1,N
1616351875.8,286047005.1,N
1616351895.6,286047006.0,N
1616351915.5,286047003.2,N
1616351935.3,286047001.6,N
1616351955.2,286047001.7,N
1616351975.9,286047004.3,N
1616351995.7,286047005.9,N
1616352015.6,286047005.9,N
1616352035.4,286047004.7,N
1616352055.2,286047005.1,N
1616352075.1,286047008.0,Y
1616352076.0,286047008.0,P
1616352095.8,286047003.5,N
1616352115.7,286047003.2,N
1616352135.5,286047004.0,N
1616352155.3,286047001.8,N
1616352175.2,286047001.4,N
1616352195.0,286046999.9,N
1616352195.9,286046999.9,N
1616352215.7,286047000.5,N
1616352235.6,286047000.7,N
1616352255.4,286047002.3,N
1616352275.3,286046998.5,N
1616352295.1,286047000.3,N
1616352296.0,286047000.3,N
1616352315.8,286046999.7,N
1616352335.7,286047000.4,N
1616352355.5,286047001.5,N
1616352375.3,286047002.0,N
1616352395.2,286047000.3,N
1616352415.0,286047000.6,N
1616352415.9,286047000.6,N
1616352435.8,286047000.0,N
1616352455.6,286047001.6,N
1616352475.4,286047002.2,N
1616352495.3,286047004.0,N
1616352515.1,286047005.4,N
1616352535.8,286047002.1,N
1616352555.7,286047002.3,N
1616352575.5,286046999.9,N
1616352595.4,286047001.0,N
1616352615.2,286047000.3,N
1616352635.0,286047000.6,N
1616352635.9,286047000.6,N
1616352655.8,286047000.2,N
1616352675.6,286047000.8,N
1616352695.4,286047000.2,N
1616352715.3,286047000.1,N
1616352735.1,286047000.8,N
1616352755.9,286047000.9,N
1616352775.7,286047002.7,N
1616352795.5,286047002.1,N
1616352815.4,286047004.6,Y
1616352835.2,286047004.1,P
1616352855.0,286047003.2,N
1616352855.9,286047003.2,N
1616352875.8,286047002.9,N
1616352895.6,286047004.6,Y
1616352915.5,286047004.0,P
1616352935.3,286047001.6,N
1616352955.1,286047002.5,N
1616352975.9,286047003.8,Y
1616352995.7,286046998.2,P
1616353015.5,286047000.5,N
1616353035.4,286047000.2,N
1616353055.2,286047004.2,N
1616353075.1,286047001.6,N
1616353076.0,286047001.6,N
1616353095.8,286047002.9,N
1616353115.6,286047005.3,Y
1616353135.5,286047002.1,P
1616353155.3,286047001.8,P
1616353175.1,286046999.7,N
1616353195.9,286047002.2,N
